Location: Napier
(39.4830°S, 176.9170°E)
Time: 19:33:14
(UTC+13:00)

ERS-1 Rocket - Visible Passes

Search period start: 14 October 2019 00:00
Search period end: 24 October 2019 00:00
Orbit: 754 x 757 km, 98.5° (Epoch: 13 October)

Date Brightness Start Highest point End Pass type
(mag) Time Alt. Az. Time Alt. Az. Time Alt. Az.
14 Oct 5.7 00:28:09 10° S 00:29:05 15° SSW 00:29:05 15° SSW visible
14 Oct 5.5 23:48:09 10° S 23:49:09 16° S 23:49:09 16° S visible
15 Oct 5.6 23:08:46 10° SSE 23:09:13 12° SSE 23:09:13 12° SSE visible
16 Oct 5.7 00:48:19 10° SSW 00:49:13 14° SSW 00:49:13 14° SSW visible
17 Oct 5.5 00:07:57 10° S 00:09:17 18° S 00:09:17 18° S visible
17 Oct 5.4 23:28:15 10° SSE 23:29:20 17° SSE 23:29:20 17° SSE visible
18 Oct 5.8 01:08:53 10° SSW 01:09:20 11° SW 01:09:20 11° SW visible
18 Oct 5.6 22:49:15 10° SE 22:49:24 11° SE 22:49:24 11° SE visible
19 Oct 5.5 00:27:53 10° S 00:29:24 18° SSW 00:29:24 18° SSW visible
19 Oct 5.2 23:47:54 10° S 23:49:28 20° S 23:49:28 20° S visible
20 Oct 5.3 23:08:32 10° SSE 23:09:31 15° SSE 23:09:31 15° SSE visible
21 Oct 5.5 00:48:04 10° SSW 00:49:31 16° SSW 00:49:31 16° SSW visible
22 Oct 5.2 00:07:41 10° S 00:09:35 22° S 00:09:35 22° S visible
22 Oct 5.1 23:28:00 10° SSE 23:29:38 21° SSE 23:29:38 21° SSE visible
23 Oct 5.7 01:08:36 10° SSW 01:09:38 13° SW 01:09:38 13° SW visible
23 Oct 5.3 22:49:00 10° SE 22:49:41 13° SE 22:49:41 13° SE visible
